EN

Hourly Weather Allur Reservior Lake

Today, 21 January, Thursday

Time Temperature Precipitation Wind Pressure Humidity
00:00 +24°C° 0 mm 2 mps 758 mmHg 80%
01:00 +24°C° 0 mm 2 mps 758 mmHg 81%
02:00 +24°C° 0 mm 2 mps 757 mmHg 82%
03:00 +23°C° 0 mm 2 mps 757 mmHg 83%
04:00 +23°C° 0 mm 2 mps 757 mmHg 84%
05:00 +23°C° 0 mm 2 mps 757 mmHg 86%
06:00 +24°C° 0 mm 2 mps 758 mmHg 81%
07:00 +25°C° 0 mm 1 mps 758 mmHg 76%
08:00 +26°C° 0 mm 1 mps 759 mmHg 71%
09:00 +28°C° 0 mm 1 mps 759 mmHg 64%
10:00 +30°C° 0 mm 2 mps 759 mmHg 56%
11:00 +32°C° 0 mm 2 mps 759 mmHg 54%
12:00 +32°C° 0 mm 2 mps 758 mmHg 52%
13:00 +34°C° 0 mm 2 mps 757 mmHg 49%
14:00 +35°C° 0 mm 3 mps 756 mmHg 47%
15:00 +33°C° 0 mm 3 mps 756 mmHg 55%
16:00 +32°C° 0 mm 4 mps 756 mmHg 64%
17:00 +29°C° 0 mm 4 mps 756 mmHg 73%
18:00 +28°C° 0 mm 4 mps 757 mmHg 77%
19:00 +28°C° 0 mm 4 mps 757 mmHg 82%
20:00 +27°C° 0 mm 4 mps 758 mmHg 86%
21:00 +26°C° 0 mm 4 mps 758 mmHg 88%
22:00 +26°C° 0 mm 4 mps 757 mmHg 90%
23:00 +26°C° 0 mm 3 mps 757 mmHg 91%

Tomorrow, 22 January, Friday

Time Temperature Precipitation Wind Pressure Humidity
00:00 +25°C° 0 mm 3 mps 757 mmHg 92%
01:00 +25°C° 0 mm 3 mps 757 mmHg 94%
02:00 +25°C° 0 mm 3 mps 757 mmHg 95%
03:00 +25°C° 0 mm 3 mps 757 mmHg 95%
04:00 +24°C° 0 mm 3 mps 757 mmHg 96%
05:00 +24°C° 0 mm 3 mps 757 mmHg 96%
06:00 +25°C° 0 mm 3 mps 758 mmHg 91%
07:00 +26°C° 0 mm 2 mps 758 mmHg 86%
08:00 +27°C° 0 mm 2 mps 759 mmHg 81%
09:00 +29°C° 0 mm 3 mps 759 mmHg 73%
10:00 +30°C° 0 mm 3 mps 759 mmHg 65%
11:00 +33°C° 0 mm 3 mps 759 mmHg 57%
12:00 +33°C° 0 mm 3 mps 758 mmHg 57%
13:00 +33°C° 0 mm 4 mps 757 mmHg 57%
14:00 +33°C° 0 mm 4 mps 756 mmHg 57%
15:00 +32°C° 0 mm 4 mps 756 mmHg 61%
16:00 +30°C° 0 mm 3 mps 756 mmHg 65%
17:00 +29°C° 0 mm 3 mps 757 mmHg 69%
18:00 +28°C° 0 mm 3 mps 757 mmHg 72%
19:00 +27°C° 0 mm 3 mps 758 mmHg 75%
20:00 +26°C° 0 mm 3 mps 758 mmHg 78%
21:00 +26°C° 0 mm 3 mps 758 mmHg 79%
22:00 +26°C° 0 mm 3 mps 758 mmHg 80%
23:00 +26°C° 0 mm 3 mps 758 mmHg 81%

Day after tomorrow, 23 January, Saturday

Time Temperature Precipitation Wind Pressure Humidity
00:00 +25°C° 0 mm 3 mps 757 mmHg 83%
01:00 +25°C° 0 mm 3 mps 757 mmHg 85%
02:00 +24°C° 0 mm 3 mps 757 mmHg 87%
03:00 +24°C° 0 mm 3 mps 757 mmHg 89%
04:00 +24°C° 0 mm 3 mps 757 mmHg 91%
05:00 +22°C° 0 mm 3 mps 757 mmHg 93%
06:00 +24°C° 0 mm 3 mps 758 mmHg 88%
07:00 +25°C° 0 mm 2 mps 758 mmHg 84%
08:00 +26°C° 0 mm 2 mps 759 mmHg 80%
09:00 +28°C° 0 mm 3 mps 759 mmHg 72%
10:00 +30°C° 0 mm 3 mps 759 mmHg 63%
11:00 +31°C° 0 mm 3 mps 759 mmHg 55%
12:00 +33°C° 0 mm 4 mps 758 mmHg 54%
13:00 +33°C° 0 mm 4 mps 758 mmHg 53%
14:00 +33°C° 0 mm 4 mps 757 mmHg 52%
15:00 +32°C° 0 mm 4 mps 757 mmHg 57%
16:00 +30°C° 0 mm 4 mps 757 mmHg 62%
17:00 +28°C° 0 mm 4 mps 757 mmHg 66%
18:00 +28°C° 0 mm 4 mps 757 mmHg 70%
19:00 +27°C° 0 mm 4 mps 758 mmHg 74%
20:00 +26°C° 0 mm 3 mps 758 mmHg 77%
21:00 +25°C° 0 mm 3 mps 758 mmHg 79%
22:00 +25°C° 0 mm 3 mps 758 mmHg 81%
23:00 +25°C° 0 mm 3 mps 758 mmHg 82%

24 January, Sunday

Time Temperature Precipitation Wind Pressure Humidity
00:00 +24°C° 0 mm 3 mps 758 mmHg 84%
01:00 +24°C° 0 mm 3 mps 757 mmHg 85%
02:00 +24°C° 0 mm 3 mps 757 mmHg 87%
03:00 +22°C° 0 mm 3 mps 757 mmHg 88%
04:00 +22°C° 0 mm 3 mps 757 mmHg 89%
05:00 +21°C° 0 mm 3 mps 757 mmHg 90%
06:00 +24°C° 0 mm 3 mps 758 mmHg 85%
07:00 +25°C° 0 mm 3 mps 759 mmHg 80%
08:00 +26°C° 0 mm 3 mps 759 mmHg 75%
09:00 +28°C° 0 mm 3 mps 759 mmHg 67%
10:00 +29°C° 0 mm 3 mps 759 mmHg 60%
11:00 +32°C° 0 mm 4 mps 759 mmHg 53%
12:00 +32°C° 0 mm 4 mps 759 mmHg 51%
13:00 +33°C° 0 mm 4 mps 758 mmHg 49%
14:00 +33°C° 0 mm 4 mps 757 mmHg 47%
15:00 +32°C° 0 mm 4 mps 757 mmHg 52%
16:00 +29°C° 0 mm 4 mps 757 mmHg 58%
17:00 +28°C° 0 mm 4 mps 757 mmHg 63%
18:00 +27°C° 0 mm 4 mps 758 mmHg 67%
19:00 +26°C° 0 mm 3 mps 758 mmHg 71%
20:00 +25°C° 0 mm 3 mps 759 mmHg 75%
21:00 +25°C° 0 mm 3 mps 759 mmHg 75%
22:00 +25°C° 0 mm 3 mps 759 mmHg 76%
23:00 +24°C° 0 mm 2 mps 759 mmHg 77%

25 January, Monday

Time Temperature Precipitation Wind Pressure Humidity
00:00 +24°C° 0 mm 3 mps 759 mmHg 78%
01:00 +24°C° 0 mm 3 mps 758 mmHg 80%
02:00 +22°C° 0 mm 3 mps 758 mmHg 81%
03:00 +22°C° 0 mm 3 mps 758 mmHg 83%
04:00 +21°C° 0 mm 3 mps 758 mmHg 85%
05:00 +21°C° 0 mm 2 mps 758 mmHg 87%
06:00 +23°C° 0 mm 2 mps 758 mmHg 82%
07:00 +24°C° 0 mm 3 mps 759 mmHg 77%
08:00 +25°C° 0 mm 3 mps 759 mmHg 72%
09:00 +27°C° 0 mm 3 mps 759 mmHg 64%
10:00 +29°C° 0 mm 3 mps 759 mmHg 57%
11:00 +32°C° 0 mm 4 mps 759 mmHg 49%
12:00 +32°C° 0 mm 4 mps 759 mmHg 48%
13:00 +32°C° 0 mm 4 mps 758 mmHg 47%
14:00 +31°C° 0 mm 3 mps 757 mmHg 46%
15:00 +30°C° 0 mm 3 mps 757 mmHg 50%
16:00 +29°C° 0 mm 3 mps 757 mmHg 54%
17:00 +28°C° 0 mm 3 mps 757 mmHg 58%
18:00 +27°C° 0 mm 3 mps 758 mmHg 62%
19:00 +26°C° 0 mm 2 mps 758 mmHg 65%
20:00 +25°C° 0 mm 2 mps 759 mmHg 68%
21:00 +24°C° 0 mm 2 mps 759 mmHg 70%
22:00 +24°C° 0 mm 1 mps 759 mmHg 71%
23:00 +23°C° 0 mm 1 mps 758 mmHg 72%

26 January, Tuesday

Time Temperature Precipitation Wind Pressure Humidity
00:00 +23°C° 0 mm 1 mps 758 mmHg 74%
01:00 +21°C° 0 mm 2 mps 758 mmHg 76%
02:00 +21°C° 0 mm 2 mps 757 mmHg 77%
03:00 +21°C° 0 mm 2 mps 757 mmHg 79%
04:00 +20°C° 0 mm 2 mps 757 mmHg 80%
05:00 +20°C° 0 mm 2 mps 757 mmHg 81%
06:00 +21°C° 0 mm 2 mps 758 mmHg 76%
07:00 +23°C° 0 mm 2 mps 758 mmHg 71%
08:00 +25°C° 0 mm 2 mps 759 mmHg 67%
09:00 +27°C° 0 mm 2 mps 759 mmHg 59%
10:00 +29°C° 0 mm 2 mps 759 mmHg 51%
11:00 +31°C° 0 mm 3 mps 759 mmHg 43%
12:00 +31°C° 0 mm 3 mps 758 mmHg 42%
13:00 +31°C° 0 mm 3 mps 757 mmHg 40%
14:00 +33°C° 0 mm 4 mps 757 mmHg 39%
15:00 +31°C° 0 mm 3 mps 757 mmHg 44%
16:00 +29°C° 0 mm 3 mps 757 mmHg 50%
17:00 +28°C° 0 mm 3 mps 757 mmHg 56%
18:00 +27°C° 0 mm 3 mps 757 mmHg 60%
19:00 +25°C° 0 mm 3 mps 758 mmHg 63%
20:00 +24°C° 0 mm 2 mps 758 mmHg 67%
21:00 +24°C° 0 mm 2 mps 758 mmHg 69%
22:00 +23°C° 0 mm 2 mps 758 mmHg 70%
23:00 +23°C° 0 mm 2 mps 758 mmHg 72%
Show more